DW9727 Weather Reports


time (UTC)temp
F
wind
direction
speed
knots
gust
knots
rain 1hr
in
rain 24hr
in
rain mn
in
humidity
%
barometer
mb
20260504184711 75 5 6.1 15.6 0.00 0.00 0.00 34 1002.7
20260504182711 75 329 6.1 13.9 0.00 0.00 0.00 41 1002.4
20260504181711 75 10 6.1 20.0 0.00 0.00 0.00 42 1002.5
20260504175711 74 334 9.6 15.6 0.00 0.00 0.00 41 1002.6
20260504174711 75 0 8.7 14.8 0.00 0.00 0.00 43 1002.5
20260504173710 74 319 8.7 15.6 0.00 0.00 0.00 44 1002.5
20260504172710 75 26 7.8 15.6 0.00 0.00 0.00 42 1002.5
20260504171710 75 314 10.4 15.6 0.00 0.00 0.00 43 1002.4
20260504170710 75 5 7.0 14.8 0.00 0.00 0.00 41 1002.3
20260504150710 70 254 6.1 11.3 0.00 0.00 0.00 45 1001.6
20260504140711 62 263 6.1 10.4 0.00 0.00 0.00 54 1002.0
20260504130710 52 227 1.7 2.6 0.00 0.00 0.00 69 1002.2
20260504081710 50 202 0.0 0.9 0.00 0.00 0.00 70 1002.5
20260504050711 53 168 0.0 0.0 0.00 0.00 0.00 64 1005.4
20260504045710 54 168 0.0 0.9 0.00 0.00 0.00 61 1005.5
20260504044711 54 93 0.9 1.7 0.00 0.00 0.00 61 1005.6
20260504042711 55 82 0.0 0.0 0.00 0.00 0.00 61 1005.8
20260504041711 55 82 0.0 0.0 0.00 0.00 0.00 59 1006.0
20260504040710 56 82 0.0 0.0 0.00 0.00 0.00 57 1006.0
20260504035711 57 82 0.0 0.0 0.00 0.00 0.00 55 1005.9
20260504034711 58 82 0.0 0.9 0.00 0.00 0.00 54 1006.0
20260504033710 59 82 0.0 1.7 0.00 0.00 0.00 52 1006.0
20260504032710 60 81 0.9 1.7 0.00 0.00 0.00 51 1006.0
20260504031710 61 76 0.9 2.6 0.00 0.00 0.00 50 1006.1
20260504030711 61 65 1.7 2.6 0.00 0.00 0.00 50 1006.1
20260504025710 61 195 0.0 0.0 0.00 0.00 0.00 51 1006.3
20260504023710 62 195 0.0 1.7 0.00 0.00 0.00 48 1006.4
20260504022710 62 195 0.0 1.7 0.00 0.00 0.00 46 1006.4
20260504021711 63 195 0.0 0.0 0.00 0.00 0.00 45 1006.4
20260504020711 64 195 0.0 1.7 0.00 0.00 0.00 45 1006.3
20260504015710 65 195 0.9 1.7 0.00 0.00 0.00 43 1006.5
20260504014710 66 195 0.9 1.7 0.00 0.00 0.00 40 1006.5
20260504013710 67 195 0.9 1.7 0.00 0.00 0.00 38 1006.5
20260504012710 67 195 0.0 2.6 0.00 0.00 0.00 38 1006.7
20260504011710 69 202 0.9 2.6 0.00 0.00 0.00 36 1006.7
20260504010711 70 192 1.7 2.6 0.00 0.00 0.00 34 1006.9
20260504005711 71 229 1.7 5.2 0.00 0.00 0.00 34 1007.1
20260504004710 71 205 1.7 5.2 0.00 0.00 0.00 35 1007.1
20260504002710 72 211 2.6 4.3 0.00 0.00 0.00 32 1007.2
20260504001711 73 182 0.0 1.7 0.00 0.00 0.00 29 1007.3
20260503235710 73 306 0.0 2.6 0.00 0.00 0.00 31 1007.6
20260503234711 73 253 0.9 2.6 0.00 0.00 0.00 30 1007.5
20260503232710 74 202 2.6 7.8 0.00 0.00 0.00 31 1007.7
20260503231711 74 265 3.5 6.1 0.00 0.00 0.00 32 1007.6
20260503225710 75 302 2.6 4.3 0.00 0.00 0.00 36 1007.7
20260503224710 74 201 0.0 2.6 0.00 0.00 0.00 41 1007.8
20260503222711 75 0 1.7 6.1 0.00 0.00 0.00 34 1007.8
20260503220711 74 11 2.6 8.7 0.00 0.00 0.00 32 1008.0
20260503215710 74 295 1.7 7.0 0.00 0.00 0.00 31 1008.3
20260503213710 76 304 4.3 10.4 0.00 0.00 0.00 31 1008.6
20260503212711 74 69 1.7 2.6 0.00 0.00 0.00 32 1008.7
20260503211710 74 21 1.7 10.4 0.00 0.00 0.00 31 1008.8
20260503203711 73 334 2.6 10.4 0.00 0.00 0.00 35 1009.3
20260503201710 73 67 1.7 6.1 0.00 0.00 0.00 30 1009.5
20260503200711 73 317 4.3 7.8 0.00 0.00 0.00 33 1009.7
20260503195711 74 288 2.6 10.4 0.00 0.00 0.00 35 1009.9
20260503192710 74 306 5.2 11.3 0.00 0.00 0.00 34 1010.2
20260503191711 73 80 3.5 7.8 0.00 0.00 0.00 33 1010.2
20260503190710 73 53 3.5 8.7 0.00 0.00 0.00 33 1010.5
20260503185710 73 13 4.3 8.7 0.00 0.00 0.00 33 1010.6